Find Starlink 11392

NORAD ID: 63056 Int'l Des: 2025-035 Owner: SPXS Country: US Constellation: starlink operational
LEOCIRCULAR

Live Position

Loading 3D Globe...

About Starlink 11392

Description loading...

Upcoming Passes

Passes for default location (London). Set your location on the main map for personalized predictions.

Altitude History

Loading altitude history...

Two-Line Element Set

1 63056U 25035E 26121.23837540 .00157598 00000-0 12064-2 0 9999
2 63056 43.0023 58.7516 0002804 233.2744 126.7866 15.70880746 69484
Epoch: May 1, 2026 • Age: 11 hours

Current Status

Altitude 355.0 km
Velocity 7.70 km/s
Sub-Earth Point -2.67°S, 121.36°E
Launch Date Feb 21, 2025
Age 1.1 years
Type internet

Technical Details

Classification Payload
Mass 960.00 kg
Dry Mass 910.00 kg
Total Mass 960.00 kg
Length 0.30 m
Diameter 4.10 m
Span 29.00 m
Shape Box + pan
Manufacturer SPXS
Bus Type Starlink V2MD
Phase Status In Orbit
Owner/State SPXS/US

Most Searched